KLM1T LFBO-EHAM

Flight info

Callsign KLM1T
Flight time 1h 21m
Altitude 36000
Route FISTO DCT PERIG DCT ADABI DCT BOKNO UN858 VANAD UN874 BAMES UT191 PODEM UN873 BAZOS DCT LUMIL DCT BELOB UY873 DENUT
Aircraft A359/H-SDE2E3GHIJ3J4J5LM1ORWXY/LB1D1

Departure

Time 2026-05-05 11:48
Airport Toulouse-Blagnac Airport (LFBO)

Arrival

Time 2026-05-05 13:10
Airport Amsterdam Airport Schiphol (EHAM)
Time Latitude Longitude Altitude Speed Heading
2026-05-05 11:25 43.62063 1.36475 500 ft 0 kts 242°
2026-05-05 11:38 43.62071 1.36497 500 ft 4 kts 242°
2026-05-05 11:38 43.62083 1.36526 500 ft 4 kts 246°
2026-05-05 11:39 43.62088 1.36559 500 ft 4 kts 289°
2026-05-05 11:39 43.62073 1.36584 500 ft 4 kts 335°
2026-05-05 11:39 43.62047 1.36594 500 ft 4 kts 358°
2026-05-05 11:39 43.62021 1.36594 500 ft 4 kts
2026-05-05 11:40 43.62009 1.36594 500 ft 0 kts
2026-05-05 11:42 43.62012 1.36594 500 ft 3 kts 360°
2026-05-05 11:42 43.62067 1.36594 500 ft 10 kts
2026-05-05 11:42 43.62165 1.36587 500 ft 18 kts 348°
2026-05-05 11:42 43.62280 1.36497 500 ft 20 kts 323°
2026-05-05 11:43 43.62391 1.36383 500 ft 21 kts 323°
2026-05-05 11:43 43.62510 1.36259 500 ft 22 kts 323°
2026-05-05 11:43 43.62634 1.36130 500 ft 23 kts 323°
2026-05-05 11:43 43.62761 1.35999 500 ft 24 kts 323°
2026-05-05 11:44 43.62884 1.35871 500 ft 22 kts 323°
2026-05-05 11:44 43.63011 1.35739 500 ft 24 kts 323°
2026-05-05 11:44 43.63145 1.35600 500 ft 25 kts 323°
2026-05-05 11:44 43.63285 1.35453 500 ft 25 kts 323°
2026-05-05 11:45 43.63428 1.35305 500 ft 26 kts 323°
2026-05-05 11:45 43.63569 1.35158 500 ft 25 kts 323°
2026-05-05 11:45 43.63697 1.35025 500 ft 22 kts 322°
2026-05-05 11:45 43.63826 1.34890 500 ft 24 kts 323°
2026-05-05 11:46 43.63960 1.34752 500 ft 24 kts 323°
2026-05-05 11:46 43.64063 1.34644 500 ft 15 kts 322°
2026-05-05 11:46 43.64150 1.34553 500 ft 17 kts 323°
2026-05-05 11:46 43.64246 1.34460 500 ft 16 kts 338°
2026-05-05 11:47 43.64343 1.34508 500 ft 16 kts 51°
2026-05-05 11:47 43.64379 1.34610 500 ft 11 kts 101°
2026-05-05 11:47 43.64347 1.34659 500 ft 0 kts 140°
2026-05-05 11:47 43.64325 1.34683 500 ft 24 kts 141°
2026-05-05 11:48 43.63198 1.35857 501 ft 168 kts 143°
2026-05-05 11:48 43.62190 1.36908 1004 ft 186 kts 143°
2026-05-05 11:48 43.61098 1.37776 1921 ft 180 kts 169°
2026-05-05 11:49 43.59868 1.37478 2309 ft 191 kts 216°
2026-05-05 11:49 43.59129 1.35941 2596 ft 202 kts 258°
2026-05-05 11:49 43.58866 1.33961 2932 ft 221 kts 266°
2026-05-05 11:49 43.59169 1.31826 3208 ft 242 kts 300°
2026-05-05 11:50 43.60442 1.30305 3899 ft 251 kts 336°
2026-05-05 11:50 43.62191 1.29921 4568 ft 261 kts 358°
2026-05-05 11:50 43.64028 1.29918 5250 ft 267 kts 357°
2026-05-05 11:50 43.65900 1.29879 5988 ft 270 kts 356°
2026-05-05 11:51 43.67794 1.29782 6724 ft 274 kts 355°
2026-05-05 11:51 43.69711 1.29650 7431 ft 278 kts 354°
2026-05-05 11:51 43.71662 1.29496 8205 ft 283 kts 354°
2026-05-05 11:51 43.73646 1.29327 9217 ft 288 kts 354°
2026-05-05 11:52 43.75676 1.29151 10142 ft 296 kts 354°
2026-05-05 11:52 43.77806 1.28959 10705 ft 319 kts 354°
2026-05-05 11:52 43.80113 1.28748 11122 ft 344 kts 354°
2026-05-05 11:52 43.82548 1.28528 11791 ft 358 kts 354°
2026-05-05 11:53 43.85056 1.28305 12651 ft 364 kts 354°
2026-05-05 11:53 43.87607 1.28076 13530 ft 370 kts 354°
2026-05-05 11:53 43.90201 1.27843 14319 ft 376 kts 354°
2026-05-05 11:53 43.92835 1.27606 15124 ft 382 kts 354°
2026-05-05 11:54 43.95499 1.27365 15923 ft 386 kts 354°
2026-05-05 11:54 43.98193 1.27120 16719 ft 390 kts 354°
2026-05-05 11:54 44.00928 1.26871 17524 ft 395 kts 354°
2026-05-05 11:54 44.03692 1.26619 18365 ft 401 kts 355°
2026-05-05 11:55 44.06487 1.26364 19127 ft 405 kts 354°
2026-05-05 11:55 44.09282 1.26110 19875 ft 410 kts 354°
2026-05-05 11:55 44.12142 1.25848 20613 ft 414 kts 354°
2026-05-05 11:55 44.15033 1.25583 21345 ft 419 kts 354°
2026-05-05 11:56 44.17958 1.25315 22071 ft 423 kts 354°
2026-05-05 11:56 44.20911 1.25044 22797 ft 428 kts 354°
2026-05-05 11:56 44.23896 1.24770 23521 ft 431 kts 354°
2026-05-05 11:56 44.26902 1.24495 24142 ft 435 kts 354°
2026-05-05 11:57 44.29940 1.24216 24712 ft 440 kts 354°
2026-05-05 11:57 44.33014 1.23933 25281 ft 444 kts 354°
2026-05-05 11:57 44.36115 1.23647 25859 ft 448 kts 354°
2026-05-05 11:57 44.39245 1.23357 26425 ft 453 kts 354°
2026-05-05 11:58 44.42405 1.23065 26996 ft 458 kts 354°
2026-05-05 11:58 44.45586 1.22662 27592 ft 459 kts 349°
2026-05-05 11:58 44.48722 1.21769 28164 ft 461 kts 343°
2026-05-05 11:58 44.51841 1.20657 28698 ft 465 kts 342°
2026-05-05 11:59 44.54929 1.19454 29201 ft 469 kts 341°
2026-05-05 11:59 44.58077 1.18185 29746 ft 473 kts 340°
2026-05-05 11:59 44.61241 1.16904 30203 ft 477 kts 340°
2026-05-05 11:59 44.64448 1.15615 30654 ft 479 kts 341°
2026-05-05 12:00 44.67669 1.14334 31114 ft 482 kts 341°
2026-05-05 12:00 44.70914 1.13052 31462 ft 487 kts 341°
2026-05-05 12:00 44.74193 1.11764 31853 ft 490 kts 341°
2026-05-05 12:00 44.77481 1.10475 32271 ft 493 kts 341°
2026-05-05 12:01 44.80796 1.09175 32657 ft 495 kts 341°
2026-05-05 12:01 44.84124 1.07868 33031 ft 498 kts 341°
2026-05-05 12:01 44.87471 1.06551 33398 ft 500 kts 341°
2026-05-05 12:01 44.90833 1.05225 33758 ft 503 kts 341°
2026-05-05 12:02 44.94215 1.03889 34061 ft 506 kts 341°
2026-05-05 12:02 44.97606 1.02549 34415 ft 506 kts 341°
2026-05-05 12:02 45.00995 1.01208 34787 ft 506 kts 341°
2026-05-05 12:02 45.04385 0.99866 35122 ft 506 kts 341°
2026-05-05 12:03 45.07779 0.98519 35454 ft 506 kts 341°
2026-05-05 12:03 45.11162 0.97175 35806 ft 506 kts 341°
2026-05-05 12:03 45.14573 0.95877 35921 ft 508 kts 343°
2026-05-05 12:03 45.17971 0.94804 35931 ft 506 kts 346°
2026-05-05 12:04 45.24878 0.92895 35940 ft 505 kts 347°
2026-05-05 12:04 45.31788 0.90965 35937 ft 505 kts 346°
2026-05-05 12:05 45.38680 0.88946 35934 ft 505 kts 346°
2026-05-05 12:05 45.45556 0.86888 35929 ft 505 kts 346°
2026-05-05 12:06 45.52453 0.84813 35918 ft 510 kts 346°
2026-05-05 12:06 45.59496 0.82690 35910 ft 522 kts 346°
2026-05-05 12:07 45.66607 0.80547 35912 ft 522 kts 346°
2026-05-05 12:07 45.73726 0.78399 35907 ft 522 kts 346°
2026-05-05 12:08 45.80791 0.76260 35898 ft 522 kts 347°
2026-05-05 12:08 45.87891 0.74103 35896 ft 522 kts 347°
2026-05-05 12:09 45.94993 0.71940 35892 ft 522 kts 347°
2026-05-05 12:09 46.02102 0.69769 35891 ft 522 kts 347°
2026-05-05 12:10 46.09223 0.67589 35888 ft 522 kts 347°
2026-05-05 12:10 46.16341 0.65404 35874 ft 523 kts 347°
2026-05-05 12:11 46.23408 0.63229 35885 ft 522 kts 347°
2026-05-05 12:11 46.30516 0.61036 35884 ft 522 kts 347°
2026-05-05 12:12 46.37622 0.58837 35880 ft 522 kts 347°
2026-05-05 12:12 46.44727 0.56633 35878 ft 522 kts 347°
2026-05-05 12:13 46.51850 0.54473 35875 ft 522 kts 350°
2026-05-05 12:13 46.57873 0.54094 35880 ft 522 kts
2026-05-05 12:14 46.65027 0.55911 35866 ft 522 kts 12°
2026-05-05 12:14 46.72124 0.58245 35878 ft 522 kts 13°
2026-05-05 12:15 46.79207 0.60651 35863 ft 522 kts 13°
2026-05-05 12:15 46.86294 0.63031 35853 ft 522 kts 13°
2026-05-05 12:16 46.93398 0.65396 35869 ft 522 kts 13°
2026-05-05 12:16 47.00448 0.67742 35867 ft 522 kts 13°
2026-05-05 12:17 47.07616 0.69406 35863 ft 521 kts
2026-05-05 12:17 47.14856 0.70269 35854 ft 521 kts
2026-05-05 12:18 47.22092 0.71006 35854 ft 520 kts
2026-05-05 12:18 47.29302 0.71735 35856 ft 519 kts
2026-05-05 12:19 47.36510 0.72482 35856 ft 519 kts
2026-05-05 12:19 47.43715 0.73239 35856 ft 518 kts
2026-05-05 12:20 47.50779 0.74674 35858 ft 515 kts 16°
2026-05-05 12:20 47.57679 0.77776 35855 ft 515 kts 19°
2026-05-05 12:21 47.64430 0.81100 35851 ft 514 kts 20°
2026-05-05 12:21 47.71197 0.84481 35825 ft 513 kts 20°
2026-05-05 12:22 47.77980 0.87858 35832 ft 515 kts 19°
2026-05-05 12:22 47.84772 0.91233 35832 ft 514 kts 20°
2026-05-05 12:23 47.91552 0.94641 35832 ft 513 kts 20°
2026-05-05 12:23 47.98317 0.98074 35828 ft 513 kts 20°
2026-05-05 12:24 48.05027 1.01487 35826 ft 513 kts 20°
2026-05-05 12:24 48.11780 1.04927 35827 ft 513 kts 20°
2026-05-05 12:25 48.18548 1.08380 35833 ft 512 kts 20°
2026-05-05 12:25 48.25294 1.11827 35836 ft 512 kts 20°
2026-05-05 12:26 48.32042 1.15267 35842 ft 512 kts 20°
2026-05-05 12:26 48.38789 1.18713 35840 ft 512 kts 20°
2026-05-05 12:27 48.45542 1.22175 35842 ft 512 kts 20°
2026-05-05 12:27 48.52234 1.25616 35845 ft 512 kts 20°
2026-05-05 12:28 48.59024 1.29101 35847 ft 512 kts 20°
2026-05-05 12:28 48.65756 1.32486 35852 ft 513 kts 20°
2026-05-05 12:29 48.72542 1.35896 35858 ft 515 kts 20°
2026-05-05 12:29 48.79342 1.39334 35869 ft 515 kts 20°
2026-05-05 12:30 48.86139 1.42787 35875 ft 515 kts 20°
2026-05-05 12:30 48.92943 1.46256 35879 ft 515 kts 20°
2026-05-05 12:31 48.99873 1.49065 35880 ft 517 kts 11°
2026-05-05 12:31 49.06960 1.50861 35878 ft 514 kts 10°
2026-05-05 12:32 49.13933 1.52472 35881 ft 502 kts
2026-05-05 12:32 49.20825 1.54212 35877 ft 501 kts 15°
2026-05-05 12:33 49.27248 1.58139 35877 ft 497 kts 33°
2026-05-05 12:33 49.32632 1.64653 35872 ft 494 kts 44°
2026-05-05 12:34 49.37609 1.71865 35879 ft 495 kts 46°
2026-05-05 12:34 49.42588 1.79266 35865 ft 495 kts 46°
2026-05-05 12:35 49.47520 1.86577 35876 ft 496 kts 46°
2026-05-05 12:35 49.52655 1.93663 35883 ft 498 kts 39°
2026-05-05 12:36 49.58204 2.00094 35881 ft 500 kts 38°
2026-05-05 12:36 49.63817 2.06441 35879 ft 501 kts 38°
2026-05-05 12:37 49.69388 2.12740 35882 ft 500 kts 38°
2026-05-05 12:37 49.73701 2.17642 35879 ft 500 kts 38°
2026-05-05 12:38 49.79308 2.24043 35881 ft 502 kts 38°
2026-05-05 12:38 49.84893 2.30440 35880 ft 502 kts 38°
2026-05-05 12:39 49.90509 2.36894 35892 ft 502 kts 38°
2026-05-05 12:39 49.96114 2.43352 35884 ft 502 kts 38°
2026-05-05 12:40 50.01717 2.49826 35882 ft 501 kts 38°
2026-05-05 12:40 50.07310 2.56309 35885 ft 501 kts 38°
2026-05-05 12:41 50.12901 2.62808 35889 ft 501 kts 38°
2026-05-05 12:41 50.18484 2.69319 35890 ft 501 kts 38°
2026-05-05 12:42 50.24067 2.75848 35884 ft 501 kts 38°
2026-05-05 12:42 50.29644 2.82390 35900 ft 502 kts 38°
2026-05-05 12:43 50.35236 2.88970 35904 ft 502 kts 38°
2026-05-05 12:43 50.40827 2.95518 35903 ft 503 kts 36°
2026-05-05 12:44 50.46846 3.01056 35910 ft 505 kts 30°
2026-05-05 12:44 50.53078 3.06343 35911 ft 506 kts 29°
2026-05-05 12:45 50.59240 3.11514 35911 ft 506 kts 29°
2026-05-05 12:45 50.65450 3.16756 35903 ft 506 kts 29°
2026-05-05 12:46 50.71661 3.22033 35558 ft 510 kts 29°
2026-05-05 12:46 50.74790 3.24654 34964 ft 507 kts 28°
2026-05-05 12:46 50.77920 3.27252 34172 ft 509 kts 29°
2026-05-05 12:47 50.81061 3.29864 33244 ft 511 kts 29°
2026-05-05 12:47 50.84207 3.32488 32357 ft 512 kts 29°
2026-05-05 12:47 50.87362 3.35125 31466 ft 513 kts 29°
2026-05-05 12:47 50.90531 3.37779 30600 ft 514 kts 29°
2026-05-05 12:48 50.93670 3.40412 30008 ft 508 kts 29°
2026-05-05 12:48 50.96771 3.43017 29348 ft 502 kts 29°
2026-05-05 12:48 50.99840 3.45600 28719 ft 495 kts 29°
2026-05-05 12:48 51.02865 3.48150 28115 ft 489 kts 29°
2026-05-05 12:49 51.05853 3.50673 27512 ft 483 kts 29°
2026-05-05 12:49 51.08805 3.53169 26915 ft 478 kts 29°
2026-05-05 12:49 51.11726 3.55643 26314 ft 473 kts 29°
2026-05-05 12:49 51.14613 3.58091 25740 ft 468 kts 29°
2026-05-05 12:50 51.17472 3.60520 25155 ft 463 kts 29°
2026-05-05 12:50 51.20264 3.62892 24566 ft 459 kts 29°
2026-05-05 12:50 51.23177 3.64903 23998 ft 455 kts 17°
2026-05-05 12:50 51.26287 3.65666 23480 ft 452 kts
2026-05-05 12:51 51.29440 3.65658 22911 ft 453 kts 359°
2026-05-05 12:51 51.32581 3.65540 22390 ft 448 kts 359°
2026-05-05 12:51 51.35688 3.65423 21901 ft 444 kts 359°
2026-05-05 12:51 51.38767 3.65316 21403 ft 441 kts 359°
2026-05-05 12:52 51.41826 3.65216 20910 ft 437 kts 360°
2026-05-05 12:52 51.44857 3.65119 20425 ft 435 kts 360°
2026-05-05 12:52 51.47878 3.65024 19945 ft 432 kts 359°
2026-05-05 12:52 51.50864 3.64931 19468 ft 428 kts 359°
2026-05-05 12:53 51.53841 3.64839 18992 ft 427 kts 359°
2026-05-05 12:53 51.56795 3.64749 18524 ft 424 kts 359°
2026-05-05 12:53 51.59728 3.64658 18025 ft 420 kts 359°
2026-05-05 12:53 51.62639 3.64568 17527 ft 417 kts 359°
2026-05-05 12:54 51.68335 3.64594 16620 ft 407 kts
2026-05-05 12:54 51.71035 3.65799 16164 ft 402 kts 26°
2026-05-05 12:54 51.73325 3.68284 15712 ft 395 kts 44°
2026-05-05 12:55 51.75043 3.71692 15267 ft 389 kts 57°
2026-05-05 12:55 51.76503 3.75361 14848 ft 388 kts 58°
2026-05-05 12:55 51.77936 3.79054 14398 ft 387 kts 58°
2026-05-05 12:55 51.79355 3.82697 14091 ft 378 kts 58°
2026-05-05 12:56 51.80731 3.86220 13867 ft 363 kts 58°
2026-05-05 12:56 51.82044 3.89578 13557 ft 342 kts 57°
2026-05-05 12:56 51.83270 3.92715 13183 ft 319 kts 57°
2026-05-05 12:56 51.84433 3.95689 12676 ft 308 kts 57°
2026-05-05 12:57 51.85554 3.98557 12249 ft 296 kts 57°
2026-05-05 12:57 51.86650 4.01365 11964 ft 295 kts 57°
2026-05-05 12:57 51.87743 4.04166 11646 ft 293 kts 57°
2026-05-05 12:57 51.88827 4.06947 11297 ft 292 kts 57°
2026-05-05 12:58 51.89947 4.09673 10961 ft 290 kts 52°
2026-05-05 12:58 51.91429 4.11849 10648 ft 288 kts 30°
2026-05-05 12:58 51.93304 4.12898 10296 ft 287 kts
2026-05-05 12:58 51.95301 4.12918 9937 ft 288 kts 357°
2026-05-05 12:59 51.97308 4.12687 9424 ft 288 kts 356°
2026-05-05 12:59 51.99300 4.12442 9070 ft 286 kts 355°
2026-05-05 12:59 52.00617 4.12286 8857 ft 286 kts 356°
2026-05-05 13:00 52.05212 4.11780 8138 ft 283 kts 357°
2026-05-05 13:00 52.06536 4.11881 7903 ft 283 kts
2026-05-05 13:01 52.12293 4.15863 7198 ft 256 kts 26°
2026-05-05 13:01 52.13319 4.16887 6846 ft 259 kts 37°
2026-05-05 13:01 52.14646 4.18870 6282 ft 256 kts 51°
2026-05-05 13:01 52.15518 4.21283 5786 ft 247 kts 68°
2026-05-05 13:02 52.16074 4.23896 5288 ft 241 kts 72°
2026-05-05 13:02 52.16543 4.26495 4874 ft 238 kts 73°
2026-05-05 13:02 52.16981 4.29062 4606 ft 233 kts 73°
2026-05-05 13:02 52.17401 4.31583 4185 ft 228 kts 74°
2026-05-05 13:03 52.17795 4.33994 3922 ft 213 kts 73°
2026-05-05 13:03 52.18165 4.36269 3652 ft 205 kts 74°
2026-05-05 13:03 52.18528 4.38510 3381 ft 203 kts 73°
2026-05-05 13:03 52.18881 4.40704 3281 ft 199 kts 73°
2026-05-05 13:04 52.19232 4.42884 3187 ft 197 kts 73°
2026-05-05 13:04 52.19576 4.45028 3093 ft 195 kts 74°
2026-05-05 13:04 52.19905 4.47100 3005 ft 184 kts 73°
2026-05-05 13:04 52.20221 4.49082 2932 ft 178 kts 73°
2026-05-05 13:05 52.20532 4.51030 2903 ft 177 kts 73°
2026-05-05 13:05 52.20949 4.52865 2899 ft 164 kts 62°
2026-05-05 13:05 52.21491 4.54418 2840 ft 154 kts 57°
2026-05-05 13:05 52.22044 4.55901 2617 ft 152 kts 57°
2026-05-05 13:06 52.22603 4.57350 2387 ft 150 kts 56°
2026-05-05 13:06 52.23156 4.58782 2175 ft 149 kts 56°
2026-05-05 13:06 52.23700 4.60200 1967 ft 149 kts 56°
2026-05-05 13:06 52.24250 4.61632 1755 ft 148 kts 55°
2026-05-05 13:07 52.24801 4.63058 1553 ft 148 kts 56°
2026-05-05 13:07 52.25342 4.64467 1345 ft 143 kts 55°
2026-05-05 13:07 52.25852 4.65788 1156 ft 132 kts 56°
2026-05-05 13:07 52.26320 4.67004 969 ft 122 kts 55°
2026-05-05 13:08 52.26759 4.68144 810 ft 116 kts 54°
2026-05-05 13:08 52.27190 4.69261 671 ft 117 kts 55°
2026-05-05 13:08 52.27627 4.70395 513 ft 118 kts 56°
2026-05-05 13:08 52.28060 4.71521 363 ft 116 kts 56°
2026-05-05 13:09 52.28500 4.72632 173 ft 116 kts 58°
2026-05-05 13:09 52.28925 4.73752 38 ft 117 kts 60°
2026-05-05 13:09 52.29334 4.74831 5 ft 98 kts 57°
2026-05-05 13:09 52.29638 4.75621 5 ft 66 kts 58°
2026-05-05 13:10 52.29820 4.76093 2 ft 32 kts 58°
2026-05-05 13:10 52.29919 4.76349 2 ft 26 kts 58°
2026-05-05 13:10 52.30051 4.76554 4 ft 27 kts 30°
2026-05-05 13:10 52.30166 4.76659 5 ft 12 kts 29°
2026-05-05 13:11 52.30247 4.76726 5 ft 15 kts 21°
2026-05-05 13:11 52.30320 4.76844 5 ft 16 kts 57°
2026-05-05 13:11 52.30386 4.77012 5 ft 19 kts 57°
2026-05-05 13:11 52.30459 4.77202 5 ft 20 kts 58°
2026-05-05 13:12 52.30532 4.77394 5 ft 20 kts 58°
2026-05-05 13:12 52.30621 4.77565 5 ft 20 kts 27°
2026-05-05 13:12 52.30764 4.77597 5 ft 22 kts
2026-05-05 13:12 52.30922 4.77615 5 ft 20 kts
2026-05-05 13:13 52.31053 4.77621 5 ft 19 kts
2026-05-05 13:13 52.31195 4.77638 5 ft 22 kts
2026-05-05 13:13 52.31353 4.77656 5 ft 23 kts 360°
2026-05-05 13:13 52.31499 4.77577 5 ft 23 kts 316°
2026-05-05 13:14 52.31575 4.77368 5 ft 20 kts 274°
2026-05-05 13:14 52.31530 4.77203 5 ft 15 kts 192°
2026-05-05 13:14 52.31416 4.77193 5 ft 11 kts 182°
2026-05-05 13:14 52.31335 4.77139 5 ft 15 kts 211°
2026-05-05 13:15 52.31264 4.77058 5 ft 7 kts 223°
2026-05-05 13:15 52.31263 4.76993 5 ft 7 kts 289°
2026-05-05 13:15 52.31283 4.76931 5 ft 2 kts 301°
2026-05-05 13:15 52.31284 4.76930 5 ft 0 kts 301°
2026-05-05 13:16 52.31285 4.76926 5 ft 0 kts 301°